{"data":{"norad_id":66882,"epoch":"2026-05-25T01:40:27.542208Z","epoch_age_seconds":69250,"freshness":"FRESH","line1":"1 66882U 25283E   26145.06976322  .00021858  00000+0  65610-3 0  9997","line2":"2 66882  53.1611  29.0155 0000942  88.4049 271.7061 15.34403189 27549","mean_motion":15.34403189,"eccentricity":9.42e-5,"inclination_deg":53.1611,"raan_deg":29.0155,"arg_perigee_deg":88.4049,"mean_anomaly_deg":271.7061,"bstar":0.0006561,"rev_number":2754,"period_min":93.84756303449,"perigee_km":462.0493555857,"apogee_km":463.33816810124,"semimajor_km":6840.8307618435,"source":"CELESTRAK","updated_at":"2026-05-25T13:38:21.378659Z"}}